Home   Weather   Bridlington   Past weeks

Flag for United Kingdom Past Weather in Bridlington, England, United Kingdom — Yesterday and Last 2 Weeks

Now
54 °F

Cool.


Feels Like: 52 °F
Forecast: 47 / 58 °F
Wind: 6 mph from Southwest

Location: Bridlington Mrsc

Current Time: Sep 30, 2016 at 9:33:17 PM

Latest Report: Sep 30, 2016 at 8:00 PM


Visibility: N/A

Pressure: 29.78 "Hg

Humidity: 74%

Dew Point: 45 °F

Location of BridlingtonLocation

Past Weather in Bridlington — Graph

°F

Bridlington Temperature Yesterday

Maximum temperature yesterday: 66 °F (at 12:00 AM)
Minimum temperature yesterday: 50 °F (at 11:00 PM)
Average temperature yesterday: 60 °F

High & Low Weather Summary for the Past Weeks

 TemperatureHumidityPressure
High70 °F (Sep 28, 6:00 PM)100% (Sep 16, 12:00 AM)30.20 "Hg (Sep 16, 12:00 AM)
Low46 °F (Sep 30, 7:00 AM)47% (Sep 22, 4:00 PM)29.68 "Hg (Sep 25, 6:00 AM)
Average58 °F83%30.00 "Hg
* Reported Sep 15 8:00 PM — Sep 30 8:00 PM, Bridlington, Weather by CustomWeather, © 2016

Note: Actual official high and low records may vary slightly from our data, if they occured in-between our weather recording intervals... More about our weather records

Advertising

Bridlington Weather History for the Previous 24 Hours

Scroll right to see more
 ConditionsComfort  
Time TempWeatherWind HumidityBarometerVisibility
8:00 PM
Fri, Sep 30
54 °FCool.6 mph74%29.78 "HgN/A
7:00 PM55 °FCool.7 mph71%29.77 "HgN/A
6:00 PM57 °FCool.7 mph65%29.77 "HgN/A
5:00 PM58 °FCool.12 mph61%29.76 "HgN/A
4:00 PM62 °FRefreshingly cool.10 mph52%29.76 "HgN/A
3:00 PM62 °FRefreshingly cool.13 mph53%29.76 "HgN/A
2:00 PM63 °FMild.13 mph49%29.77 "HgN/A
1:00 PM62 °FRefreshingly cool.12 mph55%29.78 "HgN/A
12:00 PM60 °FCool.15 mph60%29.78 "HgN/A
11:00 AM58 °FCool.13 mph65%29.78 "HgN/A
10:00 AM55 °FCool.13 mph73%29.79 "HgN/A
9:00 AM52 °FCool.12 mph81%29.78 "HgN/A
8:00 AM48 °FCool.5 mph94%29.78 "HgN/A
7:00 AM46 °FCool.3 mph92%29.78 "HgN/A
6:00 AM48 °FCool.8 mph92%29.78 "HgN/A
5:00 AM48 °FCool.5 mph90%29.79 "HgN/A
4:00 AM48 °FCool.6 mph88%29.78 "HgN/A
3:00 AM50 °FCool.12 mph83%29.79 "HgN/A
2:00 AM50 °FCool.7 mph81%29.80 "HgN/A
1:00 AM49 °FCool.7 mph82%29.80 "HgN/A
12:00 AM51 °FCool.7 mph83%29.81 "HgN/A
11:00 PM
Thu, Sep 29
50 °FCool.3 mph79%29.81 "HgN/A
10:00 PM51 °FCool.5 mph79%29.81 "HgN/A
9:00 PM53 °FCool.8 mph74%29.80 "HgN/A
Weather by CustomWeather, © 2016

See weather overviewHow to use our weather pages